TimeEDT,TemperatureF,Dew PointF,Humidity,Sea Level PressureIn,VisibilityMPH,Wind Direction,Wind SpeedMPH,Gust SpeedMPH,PrecipitationIn,Events,Conditions,WindDirDegrees,DateUTC
12:52 AM,37.9,34.0,86,30.27,10.0,Calm,Calm,-,N/A,,Clear,0,2013-04-30 04:52:00
1:52 AM,37.0,34.0,89,30.27,8.0,Calm,Calm,-,N/A,,Clear,0,2013-04-30 05:52:00
2:52 AM,37.0,33.1,86,30.27,9.0,Calm,Calm,-,N/A,,Clear,0,2013-04-30 06:52:00
3:35 AM,35.1,32.0,89,30.27,1.5,Calm,Calm,-,N/A,,Clear,0,2013-04-30 07:35:00
3:42 AM,36.0,32.0,86,30.27,1.0,Calm,Calm,-,N/A,,Clear,0,2013-04-30 07:42:00
3:45 AM,36.0,32.0,86,30.27,2.0,Calm,Calm,-,N/A,,Clear,0,2013-04-30 07:45:00
3:52 AM,35.1,32.0,89,30.27,6.0,Calm,Calm,-,N/A,,Clear,0,2013-04-30 07:52:00
4:36 AM,34.0,30.9,89,30.28,2.0,Calm,Calm,-,N/A,,Clear,0,2013-04-30 08:36:00
4:48 AM,33.8,30.2,87,30.28,1.2,Calm,Calm,-,N/A,,Clear,0,2013-04-30 08:48:00
4:52 AM,35.1,30.9,85,30.28,0.8,Calm,Calm,-,N/A,,Clear,0,2013-04-30 08:52:00
5:03 AM,34.0,30.9,89,30.28,1.0,Calm,Calm,-,N/A,,Mist,0,2013-04-30 09:03:00
5:23 AM,34.0,32.0,92,30.29,0.2,Calm,Calm,-,N/A,Fog,Fog,0,2013-04-30 09:23:00
5:52 AM,33.1,30.0,89,30.30,0.2,Calm,Calm,-,N/A,Fog,Fog,0,2013-04-30 09:52:00
6:37 AM,36.0,33.1,89,30.31,2.0,Calm,Calm,-,N/A,,Scattered Clouds,0,2013-04-30 10:37:00
6:45 AM,37.0,35.1,93,30.31,5.0,Calm,Calm,-,N/A,,Partly Cloudy,0,2013-04-30 10:45:00
6:52 AM,39.0,36.0,89,30.31,5.0,Calm,Calm,-,N/A,,Clear,0,2013-04-30 10:52:00
7:52 AM,50.0,39.9,68,30.32,10.0,Calm,Calm,-,N/A,,Clear,0,2013-04-30 11:52:00
8:52 AM,55.9,33.1,42,30.33,10.0,Calm,Calm,-,N/A,,Clear,0,2013-04-30 12:52:00
9:52 AM,61.0,21.0,21,30.33,10.0,SE,4.6,-,N/A,,Clear,130,2013-04-30 13:52:00
10:52 AM,64.0,21.0,19,30.33,10.0,SE,5.8,-,N/A,,Clear,130,2013-04-30 14:52:00
11:52 AM,66.0,23.0,20,30.32,10.0,Variable,5.8,-,N/A,,Clear,0,2013-04-30 15:52:00
12:52 PM,68.0,19.0,15,30.31,10.0,ESE,11.5,-,N/A,,Clear,110,2013-04-30 16:52:00
1:52 PM,69.1,18.0,14,30.30,10.0,East,6.9,-,N/A,,Clear,90,2013-04-30 17:52:00
3:52 PM,66.9,24.1,20,30.29,10.0,SSE,10.4,-,N/A,,Clear,150,2013-04-30 19:52:00
4:52 PM,66.0,24.1,20,30.30,10.0,SSE,9.2,-,N/A,,Clear,160,2013-04-30 20:52:00
5:52 PM,64.0,28.0,26,30.31,10.0,SE,9.2,-,N/A,,Clear,140,2013-04-30 21:52:00
6:52 PM,61.0,25.0,25,30.32,10.0,SSE,6.9,-,N/A,,Clear,150,2013-04-30 22:52:00
7:52 PM,55.9,28.9,36,30.34,10.0,SSE,3.5,-,N/A,,Clear,160,2013-04-30 23:52:00
8:52 PM,46.9,34.0,61,30.36,10.0,Calm,Calm,-,N/A,,Clear,0,2013-05-01 00:52:00
9:52 PM,41.0,35.1,79,30.36,10.0,Calm,Calm,-,N/A,,Clear,0,2013-05-01 01:52:00
10:52 PM,41.0,34.0,76,30.36,10.0,Calm,Calm,-,N/A,,Clear,0,2013-05-01 02:52:00
11:52 PM,37.0,33.1,86,30.37,10.0,Calm,Calm,-,N/A,,Clear,0,2013-05-01 03:52:00